Location: Newark
(43.0000°N, 1.6781°W)
Time: 23:18:14
(UTC+00:00)

deb Explorer IX - Pass Details

Date: 22 April 2021
Orbit: 541 x 1098 km, 38.8° (Epoch: 12 May)

Event Time Altitude Azimuth Distance (km) Brightness Sun altitude
Rises 08:36:57 0° 263° (W) 2,781 ? 35.8°
Reaches altitude 10° 08:39:09 10° 258° (WSW) 1,932 ? 36.2°
Maximum altitude 08:43:27 51° 183° (S) 820 ? 36.9°
Drops below altitude 10° 08:48:25 10° 108° (ESE) 2,222 ? 37.8°
Sets 08:51:06 0° 104° (ESE) 3,245 ? 38.2°
